CZ-6A DEB, 61459

Orbit data source: Space-Track

CZ-6A DEB, 61459 is space debris in LEO originally from a launch on Tue, 06 Aug 2024 UTC launched from the Taiyaun Space Center, China (TSC). Debris objects in space refer to the collection of defunct objects orbiting the Earth. Examples of debris include non-operational satellites, rocket bodies, and fragments generated from explosions, collisions, or faulty payload assembly.

Loading next visibility...
Identifier
61459, 2024-140ZR
Orbit
LEO
Country
Flag of CNCN / PRC
Related business
Manufacturer
SAST
Mission
Spacecraft
Bus & Motor
Unknown
Mass
Unknown
Launch date (UTC)
2024-08-06 (1 year ago)
Launch vehicle
Unknown
Launch site
Taiyaun Space Center, China (TSC)
Object type
Payload
Rocket body
Debris
Shape & HBR
Unknown shape, 0.1 m
Radar Cross Section
Small (<0.1 m²)

Expand to show TLE details & history
Last TLE update: 13 hours ago

TLE from 13 hours ago
0 CZ-6A DEB
1 61459U 24140ZR  25350.75545802  .00001703  00000-0  49766-3 0  9993
2 61459  88.4509 260.1836 0043898 171.9832 188.2083 14.43045365 69404
Epoch: 2025-12-16T18:07Z
TLE epoch observation values (Epoch: 2025-12-16T18:07:51.572Z)
Latitude
0.00001°
Longitude
-97.4164°
Altitude
782.511 km
Speed
7.446 km/s
True Right ascension
17h 20m 44s
True Declination
0° 00' 00"
Sunlit
Object was in daylight at epoch
Visualization orbit readout
Latitude
Unknown
Longitude
Unknown
Altitude
Unknown
Speed
Unknown
Apparent Right ascension
Unknown
Apparent Declination
Unknown
Sunlit
N/A
Visualization observer readout
Local Sidereal Time
05:33:34
Azimuth
Unknown
Elevation
Unknown
Doppler factor
Unknown
Orbital elements
Apogee altitude
776.647 km
Perigee altitude
714.106 km
Semi-major axis
7,123.513 km
Eccentricity
0.00439
Inclination
88.4509°
RAAN
260.1836°
Arg. of periapsis
171.9832°
True anomaly
188.13687°
Mean anomaly
188.2083°
Eccentric anomaly
188.17255°
Mean motion
3.60996 °/min
Orbital period
99.72 mins
BSTAR
0.00049766
Loading maneuver chart data...
Computing Atmospheric mass density...

Documentation

Showing up to 5 results
|